TIME,DELAY(SENSOR),PRES,OXYGEN,RAWTEMP,T(OPTODE),TCPHASE,FLUOR,BETA(BETA700),BETA(BETA412),BETA(BETA440),CDOM,C(CSC),ED(ED412.20),ED(ED444.00),ED(ED489.60),ED(ED554.30),LU(LU412.10),LU(LU443.90),LU(LU489.70),LU(LU554.70),COMP,TILTX,TILTY,CHECK
1343705945,5808,888.4400024414062000,36.4919700622558600,561.6094970703125000,4.4360051155090330,56.0640716552734400,55,101,101,78,83,15571,0,0,0,0,2147126774,2147778285,2147573878,2147571565,2254,3,13,38638
1343709541,5811,969.0900268554688000,41.2929191589355500,567.7841796875000000,4.2443981170654300,55.3974189758300800,54,101,102,78,82,15568,0,0,0,0,2147124800,2147777792,2147576100,2147569179,3470,3,13,34630
1343713141,5809,991.7700195312500000,42.9911804199218750,568.7346191406250000,4.2148761749267580,55.1635818481445300,54,141,100,78,82,15561,0,0,0,0,2147123739,2147771940,2147572608,2147568969,207,3,13,61996
1343716741,5809,1001.7899780273438000,42.9818801879882800,568.7119140625000000,4.2155838012695310,55.1590003967285160,55,100,102,79,83,15561,0,0,0,0,2147124352,2147770825,2147577216,2147569856,260,3,13,4265
1343720341,5809,1000.8099975585938000,42.9699096679687500,568.9732055664062000,4.2074642181396480,55.1693000793457000,55,100,100,78,83,15559,0,0,0,0,2147125211,2147773019,2147573339,2147568914,3263,3,13,13278
1343723941,5810,1003.0599975585938000,42.9463996887207000,569.1757812500000000,4.2011718750000000,55.1730613708496100,55,97,101,79,83,15562,0,0,0,0,2147123776,2147776338,2147574390,2147567862,3376,3,13,34970
1343727541,5806,1007.7700195312500000,42.8768806457519500,569.1340942382812000,4.2024669647216800,55.1848793029785160,55,99,100,78,83,15560,0,0,0,0,2147125632,2147775424,2147576640,2147574208,3595,3,13,22035
1343731141,5808,1011.0100097656250000,42.2056999206543000,568.5933837890625000,4.2192630767822270,55.2723197937011700,55,101,101,78,84,15558,0,0,0,0,2147124059,2147781229,2147572955,2147569152,3431,3,13,45482
1343734741,5810,1020.7500000000000000,42.1273918151855500,568.5728759765625000,4.2198982238769530,55.2876281738281250,56,100,100,78,83,15559,0,0,0,0,2147121408,2147775424,2147575872,2147571072,3565,3,13,41931
1343738341,5808,1013.2299804687500000,42.0319404602050800,568.6674804687500000,4.2169609069824220,55.2994194030761700,56,102,102,78,82,15560,0,0,0,0,2147123053,2147781202,2147576621,2147572516,299,3,13,8189
1343741941,5811,1016.7100219726562000,42.1428298950195300,568.5440063476562000,4.2207970619201660,55.2806701660156250,55,99,102,78,82,15558,0,0,0,0,2147123867,2147770998,2147574454,2147570962,278,3,13,17539
1343745541,5813,1017.7899780273438000,42.1780090332031250,568.6887207031250000,4.2163047790527340,55.2790184020996100,54,101,103,79,83,15560,0,0,0,0,2147120804,2147777554,2147574354,2147566939,3450,3,13,44706
1343749141,5810,1010.8099975585938000,42.2453384399414060,568.7999267578125000,4.2128491401672360,55.2679405212402340,55,101,102,78,83,15557,0,0,0,0,2147123629,2147776466,2147572653,2147568292,3070,3,13,55491
1343752741,5810,1013.5999755859375000,42.2309913635253900,569.4995117187500000,4.1911129951477050,55.2830009460449200,55,98,101,77,83,15557,0,0,0,0,2147122386,2147776054,2147574134,2147569600,154,3,13,65510
1343756341,5809,1009.8599853515625000,42.3557014465332000,569.4893188476562000,4.1914291381835940,55.2625885009765600,55,99,101,79,83,15556,0,0,0,0,2147126518,2147775497,2147577124,2147572726,3480,3,13,57797
1343759941,5812,1003.2100219726562000,42.5203704833984400,570.8659057617188000,4.1486492156982420,55.2551498413085940,55,103,100,78,84,15556,0,0,0,0,2147125156,2147772224,2147575680,2147572580,2221,3,13,47299
1343763541,5811,1011.2800292968750000,43.4707984924316400,571.7456054687500000,4.1213040351867680,55.1224784851074200,55,114,101,78,82,15558,0,0,0,0,2147124516,2147778825,2147574692,2147570761,3451,3,13,33341
1343767141,5809,1016.1199951171875000,43.4344711303710940,571.7542724609375000,4.1210308074951170,55.1277999877929700,55,99,102,79,83,15545,0,0,0,0,2147124416,2147777398,2147576758,2147569398,3172,3,13,11240
1343770741,5812,1018.8400268554688000,42.3816184997558600,569.7341918945312000,4.1838212013244630,55.2630004882812500,55,100,100,78,84,15542,0,0,0,0,2147121682,2147778980,2147575872,2147570880,100,3,13,23795
1343774341,5812,1014.6599731445312000,42.7211303710937500,570.9453735351562000,4.1461791992187500,55.2216682434082000,55,99,101,78,83,15540,0,0,0,0,2147125101,2147778285,2147573997,2147568192,3380,2,13,31621
1343777941,5810,1019.4099731445312000,42.5032806396484400,569.5344238281250000,4.1900272369384770,55.2388610839843750,55,98,101,77,82,15545,0,0,0,0,2147124032,2147771849,2147573613,2147569782,143,3,13,22336
1343781541,5811,1017.4400024414062000,41.7924499511718750,569.7711791992188000,4.1826710700988770,55.3457717895507800,56,100,103,79,83,15541,0,0,0,0,2147122240,2147772269,2147576484,2147567917,3546,3,13,6064
1343785141,5810,1015.0900268554688000,42.4642601013183600,570.7238769531250000,4.1530609130859375,55.2590599060058600,56,100,101,76,84,15538,0,0,0,0,2147124352,2147773997,2147575707,2147569499,277,3,13,34333
1343788741,5808,1016.7600097656250000,41.9055290222168000,570.2639160156250000,4.1673598289489750,55.3347702026367200,54,100,101,78,83,15537,0,0,0,0,2147121755,2147774656,2147574985,2147568466,367,3,13,26777
1343792341,5808,1017.8200073242188000,41.6665687561035160,569.9658813476562000,4.1766200065612790,55.3666801452636700,55,99,103,79,82,15536,0,0,0,0,2147120886,2147780342,2147573677,2147570861,260,3,13,54211
1343795941,5810,1025.2399902343750000,42.3535995483398440,569.6864013671875000,4.1853070259094240,55.2625007629394500,56,99,100,78,82,15536,0,0,0,0,2147120137,2147774454,2147578834,2147572745,328,3,13,32105
1343799541,5808,1016.7600097656250000,41.7360382080078100,569.7758178710938000,4.1825280189514160,55.3575096130371100,54,103,101,77,83,15534,0,0,0,0,2147122368,2147775680,2147574253,2147570422,474,3,13,15515
1343803141,5809,1019.0300292968750000,42.4979400634765600,570.9312744140625000,4.1466178894042970,55.2579689025878900,54,101,100,78,84,15536,0,0,0,0,2147126162,2147774701,2147576192,2147568722,276,3,13,29485
1343806741,5810,1017.2299804687500000,41.8922386169433600,570.7329711914062000,4.1527791023254395,55.3445587158203100,54,102,100,81,83,15531,0,0,0,0,2147123977,2147772150,2147577024,2147569929,3547,3,13,60476
1343810341,5811,1027.8299560546875000,42.4449501037597660,569.6417236328125000,4.1866950988769530,55.2526283264160160,55,99,102,79,82,15531,0,0,0,0,2147123547,2147770176,2147576027,2147571794,2904,3,13,31508
1343813941,5810,1024.6400146484375000,41.8829994201660160,569.5396728515625000,4.1898651123046875,55.3285598754882800,55,102,101,78,83,15534,0,0,0,0,2147126217,2147777691,2147576411,2147570779,78,3,13,26814
1343817541,5808,1024.2199707031250000,41.6027412414550800,569.4649047851562000,4.1921877861022950,55.3752517700195300,55,101,101,78,84,15535,0,0,0,0,2147120923,2147771273,2147573174,2147568640,381,3,13,19316
1343821141,5810,1033.2299804687500000,42.3536911010742200,569.1923828125000000,4.2006549835205080,55.2560005187988300,54,101,101,78,83,15535,0,0,0,0,2147125357,2147772187,2147576338,2147572790,410,3,13,7913
1343824741,5810,1027.7099609375000000,41.5559082031250000,569.1765747070312000,4.2011451721191410,55.3784294128418000,56,100,100,78,84,15531,0,0,0,0,2147122368,2147772288,2147581229,2147569024,25,3,13,41834
1343828341,5807,1025.0400390625000000,41.9911994934082000,568.9575195312500000,4.2079539299011230,55.3134613037109400,55,99,101,78,83,15532,0,0,0,0,2147123501,2147776210,2147579081,2147568987,288,3,13,41091
1343831941,5811,1029.3800048828125000,41.8132019042968750,569.3651123046875000,4.1952900886535645,55.3384094238281250,56,100,101,78,83,15533,0,0,0,0,2147122688,2147776283,2147577792,2147572955,123,3,13,28195
1343835541,5812,1026.1300048828125000,41.5977096557617200,569.3958129882812000,4.1943340301513670,55.3745918273925800,56,97,101,76,82,15530,0,0,0,0,2147120694,2147775661,2147573485,2147571044,54,3,13,58376
1343839141,5810,1028.4100341796875000,42.1242599487304700,569.3414916992188000,4.1960220336914060,55.2929611206054700,56,104,101,77,83,15531,0,0,0,0,2147121179,2147779757,2147577088,2147571584,3578,3,13,31076
1343842741,5808,1029.4399414062500000,42.3817901611328100,569.2326049804688000,4.1994061470031740,55.2575111389160160,55,99,101,78,82,15529,0,0,0,0,2147125577,2147777197,2147574409,2147571081,3373,3,13,4019
1343846341,5811,1021.7100219726562000,42.2709007263183600,570.0175781250000000,4.1750130653381350,55.2824897766113300,55,99,101,79,82,15531,0,0,0,0,2147122386,2147776155,2147579574,2147568137,652,3,13,48502
1343849155,5810,1020.5399780273438000,42.3881492614746100,571.3186035156250000,4.1345767974853520,55.2769203186035160,56,100,100,78,82,15532,0,0,0,0,2147126226,2147778212,2147577792,2147570185,3054,3,13,51002
